Location: Newark
(54.2500°N, 9.1833°E)
Time: 11:15:04
(UTC+00:00)

A-11 Canister half - All Passes

Search period start: 06 December 2019 00:00
Search period end: 16 December 2019 00:00
Orbit: 1515 x 1685 km, 47.2° (Epoch: 05 December)

Date Brightness Start Highest point End Pass type
(mag) Time Alt. Az. Time Alt. Az. Time Alt. Az.
06 Dec - 11:39:34 10° S 11:47:04 26° SE 11:54:45 10° E daylight
06 Dec - 13:41:03 10° SW 13:50:21 50° SSE 13:59:55 10° E daylight
06 Dec - 15:44:49 10° W 15:54:29 59° S 16:04:22 10° ESE visible
06 Dec - 17:49:17 10° W 17:58:28 42° SSW 18:07:43 10° SE visible
06 Dec - 19:55:13 10° W 20:01:22 18° SW 20:07:32 10° SSW visible
07 Dec - 11:16:58 10° S 11:24:15 25° SE 11:31:43 10° E daylight
07 Dec - 13:18:15 10° SW 13:27:29 49° SSE 13:36:59 10° E daylight
07 Dec - 15:21:55 10° WSW 15:31:35 59° S 15:41:27 10° ESE visible
07 Dec - 17:26:22 10° W 17:35:35 43° SSW 17:44:54 10° SE visible
07 Dec - 19:32:07 10° W 19:38:35 19° SW 19:45:04 10° S visible
08 Dec - 10:54:24 10° S 11:01:27 23° SE 11:08:40 10° E daylight
08 Dec - 12:55:26 10° SW 13:04:36 48° SSE 13:14:02 10° E daylight
08 Dec - 14:59:02 10° WSW 15:08:40 59° S 15:18:32 10° ESE daylight
08 Dec - 17:03:26 10° W 17:12:42 44° SSW 17:22:06 10° SE visible
08 Dec - 19:09:01 10° W 19:15:46 21° SW 19:22:33 10° S visible
09 Dec - 10:31:51 10° S 10:38:39 22° SE 10:45:36 10° E daylight
09 Dec - 12:32:38 10° SW 12:41:43 46° SSE 12:51:06 10° E daylight
09 Dec - 14:36:10 10° WSW 14:45:46 59° S 14:55:37 10° ESE daylight
09 Dec - 16:40:32 10° W 16:49:49 46° SSW 16:59:16 10° SE visible
09 Dec - 18:45:57 10° W 18:52:57 22° SW 19:00:00 10° S visible
10 Dec - 10:09:20 10° S 10:15:52 21° SE 10:22:31 10° E daylight
10 Dec - 12:09:51 10° SW 12:18:51 45° SSE 12:28:08 10° E daylight
10 Dec - 14:13:17 10° WSW 14:22:51 59° S 14:32:42 10° ESE daylight
10 Dec - 16:17:36 10° W 16:26:56 47° SSW 16:36:26 10° SE visible
10 Dec - 18:22:54 10° W 18:30:08 23° SW 18:37:26 10° S visible
11 Dec - 09:46:51 10° S 09:53:04 20° SE 09:59:25 10° E daylight
11 Dec - 11:47:04 10° SW 11:55:59 44° SSE 12:05:11 10° E daylight
11 Dec - 13:50:25 10° WSW 13:59:56 59° S 14:09:46 10° ESE daylight
11 Dec - 15:54:42 10° W 16:04:03 48° SSW 16:13:35 10° SE visible
11 Dec - 17:59:53 10° W 18:07:20 24° SW 18:14:50 10° S visible
12 Dec - 09:24:24 10° S 09:30:17 18° SE 09:36:17 10° E daylight
12 Dec - 11:24:18 10° SW 11:33:07 42° SSE 11:42:14 10° E daylight
12 Dec - 13:27:33 10° WSW 13:37:03 59° S 13:46:51 10° ESE daylight
12 Dec - 15:31:47 10° W 15:41:10 49° SSW 15:50:44 10° SE visible
12 Dec - 17:36:52 10° W 17:44:30 25° SW 17:52:12 10° S visible
13 Dec - 09:01:59 10° SSE 09:07:30 17° SE 09:13:08 10° E daylight
13 Dec - 11:01:33 10° SW 11:10:16 41° SSE 11:19:17 10° E daylight
13 Dec - 13:04:41 10° WSW 13:14:08 58° S 13:23:55 10° E daylight
13 Dec - 15:08:54 10° W 15:18:16 50° SSW 15:27:53 10° SE daylight
13 Dec - 17:13:53 10° W 17:21:40 27° SW 17:29:33 10° S visible
14 Dec - 08:39:38 10° SSE 08:44:44 16° SE 08:49:56 10° E daylight
14 Dec - 10:38:48 10° SW 10:47:25 40° SSE 10:56:20 10° E daylight
14 Dec - 12:41:49 10° WSW 12:51:15 58° S 13:00:59 10° E daylight
14 Dec - 14:46:00 10° W 14:55:23 51° SSW 15:05:01 10° SE daylight
14 Dec - 16:50:54 10° W 16:58:50 28° SW 17:06:53 10° SSE visible
15 Dec - 08:17:21 10° SSE 08:21:58 15° SE 08:26:40 10° E daylight
15 Dec - 10:16:04 10° SSW 10:24:35 38° SSE 10:33:21 10° E daylight
15 Dec - 12:18:58 10° WSW 12:28:20 57° S 12:38:04 10° E daylight
15 Dec - 14:23:06 10° W 14:32:29 52° SSW 14:42:08 10° SE daylight
15 Dec - 16:27:56 10° W 16:36:00 29° SW 16:44:12 10° SSE visible
